Погода в Южно-Курильске

Россия / Сахалинская область     44°01′33″N   145°51′47″E
темп.,
°C
ветер,
м/с
пор.,
м/с
влажн.,
%
обл.,
%
осадки,
мм/ч
давл.,
гПа
погр.,
м
18 мая, ср
ср1823:00+9ююз5119656 0.0 1017296
02:00+8ююз379626 0.0 1017203
05:00+8ююз389615 0.0 1017209
08:00+10ююз478444 0.1 1018406
11:00+11ю487724 0.1 1018511
14:00+12ю577928 0.0 1018414
17:00+12ю477719 0.0 1016292
20:00+8ю469654 0.0 1017116
19 мая, чт
чт1923:00+6ю469883 0.0 1018150
02:00+5ю369840 0.0 1017121
05:00+5ююв349876 0.0 101769
08:00+8ю358617 0.0 1017137
11:00+11ю457169 0.0 1016300
14:00+13ююв466794 0.0 1015416
17:00+12юв3574100 0.0 1014197
20:00+9вюв2289100 0.3 101444
20 мая, пт
пт2023:00+7ююв3390100 0.4 101448
02:00+7ююв359890 0.0 1013129
05:00+7ююв349788 0.3 101297
08:00+8ю3698100 0.1 1012243
11:00+12ю338128 0.1 1011303
14:00+13ю2373100 0.0 1011439
17:00+12ююв2279100 0.1 1010163
20:00+10ю119294 0.0 101224
21 мая, сб
сб2123:00+9ююв229541 0.0 101313
02:00+8ююв229250 0.0 101219
05:00+7ю229868 0.0 101324
08:00+8вюв229555 0.1 101387
11:00+12ю367332 0.1 1012280
14:00+13ююв457439 0.0 1012271
17:00+12ююв458227 0.1 1011190
20:00+9ююв459539 0.0 1011100
22 мая, вс
вс2223:00+8ю589793 0.0 1011166
02:00+9ю6129780 0.0 1011250
05:00+8ю5139758 0.0 1011288
08:00+10ю5108814 0.0 1011266
11:00+13ю5107792 0.0 1012400
14:00+14ю6127156 0.0 1012466
17:00+14ю6128027 0.0 1012420
20:00+10ю599791 0.1 1013207